This is the latest recevied weather packets stored in our database for station/object N7WSS. If no packets are shown the sender has not sent any weather packets the latest 10 day(s).
| Time | Temp. | Humidity | Pressure | Rain* | Wind** | Luminosity | Snow |
|---|---|---|---|---|---|---|---|
| 1777699357 | 19.44° C | 32% | 1010.9 hPa | 0 mm | - | - | - |
| 1777699055 | 20° C | 31% | 1011.1 hPa | 0 mm | - | - | - |
| 1777698753 | 19.44° C | 31% | 1011.3 hPa | 0 mm | - | - | - |
| 1777698449 | 19.44° C | 31% | 1010.9 hPa | 0 mm | - | - | - |
| 1777698145 | 18.89° C | 32% | 1010.9 hPa | 0 mm | - | - | - |
| 1777697843 | 18.89° C | 31% | 1010.8 hPa | 0 mm | - | - | - |
| 1777697539 | 19.44° C | 30% | 1010.8 hPa | 0 mm | - | - | - |
| 1777697236 | 19.44° C | 30% | 1010.8 hPa | 0 mm | - | - | - |
| 1777696932 | 18.89° C | 30% | 1010.8 hPa | 0 mm | - | - | - |
| 1777696630 | 18.89° C | 30% | 1010.6 hPa | 0 mm | - | - | - |
| 1777696328 | 18.89° C | 31% | 1010.6 hPa | 0 mm | - | - | - |
| 1777696026 | 18.89° C | 30% | 1010.7 hPa | 0 mm | - | - | - |
| 1777695724 | 19.44° C | 30% | 1010.5 hPa | 0 mm | - | - | - |
| 1777695422 | 20° C | 30% | 1010.4 hPa | 0 mm | - | - | - |
| 1777695119 | 20° C | 29% | 1010.6 hPa | 0 mm | - | - | - |
| 1777694816 | 20° C | 29% | 1010.5 hPa | 0 mm | - | - | - |
| 1777694513 | 20.56° C | 28% | 1010.4 hPa | 0 mm | - | - | - |
| 1777694209 | 20.56° C | 28% | 1010.4 hPa | 0 mm | - | - | - |
| 1777693906 | 20° C | 29% | 1010.1 hPa | 0 mm | - | - | - |
| 1777693604 | 20.56° C | 28% | 1010.2 hPa | 0 mm | - | - | - |
| 1777693302 | 21.11° C | 27% | 1010.2 hPa | 0 mm | - | - | - |
| 1777692999 | 21.11° C | 27% | 1010.1 hPa | 0 mm | - | - | - |
| 1777692697 | 21.67° C | 27% | 1010 hPa | 0 mm | - | - | - |
| 1777692392 | 21.67° C | 26% | 1009.9 hPa | 0 mm | - | - | - |
| 1777692089 | 22.22° C | 25% | 1010 hPa | 0 mm | - | - | - |
* Rain latest hour (hover to see other rain measurements)
** Current wind speed in m/s (hover to see current wind gust speed)